This demonstration page uses our WeatherBlox Daily Observations layout. Learn more.

Left ArrowRight Arrow

34.02893, -84.19858

Hourly Observations for October 10, 2015

Temp ( °F °C ) Dew Point ( °F °C ) Humidity (%) Winds ( mph kmh ) Pressure ( in mb ) Visibility ( mi km ) Precip ( " mm )
12:53 am 00:53 Cloudy with Light Rain 68 20 65 18.3 90 90 WNW 9 15 29.99 1016 7 11 0.01 0.25
1:53 am 01:53 Cloudy with Rain 65 18.3 65 18.3 100 100 NNW 10 17 30.00 1016 8 13 0.07 1.78
2:14 am 02:14 Cloudy with Heavy Rain 64 18 64 18 100 100 N 9 15 30.00 1016 3 4 0.00 0.00
2:29 am 02:29 Cloudy with Heavy Rain 64 17.8 64 17.8 100 100 VRB 5 7 30.00 1016 3 5 0.26 6.60
2:53 am 02:53 Cloudy with Light Rain 64 17.8 64 17.8 100 100 Calm 29.99 1016 8 13 0.30 7.62
3:53 am 03:53 Cloudy 63 17.2 63 17.2 100 100 ENE 5 7 29.95 1014 10 16 0.12 3.05
4:13 am 04:13 Cloudy 64 17.8 63 17.2 96 96 Calm 29.97 1015 10 16 0.00 0.00
4:53 am 04:53 Cloudy with Rain 63 17.2 63 17.2 100 100 N 3 6 29.98 1015 3 5 0.07 1.78
5:46 am 05:46 Cloudy with Light Rain 64 17.8 64 17.8 100 100 W 3 6 29.97 1015 10 16 0.06 1.52
5:53 am 05:53 Cloudy with Light Rain 64 17.8 64 17.8 100 100 WNW 3 6 29.97 1015 10 16 0.06 1.52
6:26 am 06:26 Cloudy with Light Rain 64 18 64 18 100 100 ESE 5 7 29.97 1015 5 8 0.00 0.00
6:53 am 06:53 Cloudy with Rain 64 17.8 64 17.8 100 100 Calm 29.95 1014 3 5 0.04 1.02
7:04 am 07:04 Cloudy with Light Rain 64 18 64 18 100 100 Calm 29.94 1014 4 6 0.00 0.00
7:12 am 07:12 Cloudy with Light Rain 64 18 64 18 100 100 Calm 29.97 1015 3 4 0.00 0.00
7:53 am 07:53 Cloudy 64 17.8 64 17.8 100 100 Calm 29.94 1014 9 14 0.01 0.25
8:23 am 08:23 Partly Cloudy with Mist and Fog 63 17.2 63 17.2 100 100 W 6 9 29.97 1015 3 4 0.00 0.00
8:53 am 08:53 Mostly Cloudy with Mist and Fog 63 17.2 63 17.2 100 100 NW 9 15 29.98 1015 3 4 0.00 0.00
9:00 am 09:00 Mostly Cloudy 64 18 64 18 100 100 WNW 9 15 30.00 1016 10 16 0.00 0.00
9:42 am 09:42 Mostly Cloudy 64 18 64 18 100 100 WNW 5 7 30.00 1016 10 16 0.00 0.00
9:53 am 09:53 Mostly Cloudy 65 18.3 65 18.3 100 100 WNW 6 9 30.00 1016 10 16 0.00 0.00
10:53 am 10:53 Cloudy 67 19.4 64 17.8 91 91 NW 9 15 30.00 1016 10 16 0.00 0.00
11:53 am 11:53 Cloudy 69 20.6 63 17.2 81 81 WNW 6 9 29.99 1016 10 16 0.00 0.00
12:28 pm 12:28 Mostly Cloudy 72 22 63 17 73 73 WNW 9 15 30.00 1016 10 16 0.00 0.00
12:53 pm 12:53 Mostly Cloudy 69 20.6 63 17.2 81 81 WNW 7 11 29.98 1015 10 16 0.00 0.00
1:53 pm 13:53 Mostly Cloudy 69 20.6 62 16.7 78 78 WNW 8 13 29.97 1015 10 16 0.00 0.00
2:53 pm 14:53 Mostly Cloudy 71 21.7 62 16.7 73 73 WNW 14 22 29.95 1014 10 16 0.00 0.00
3:16 pm 15:16 Cloudy 70 21 63 17 78 78 W 10 17 29.94 1014 10 16 0.00 0.00
3:53 pm 15:53 Cloudy 70 21.1 62 16.7 76 76 NW 10 17 29.94 1014 10 16 0.00 0.00
4:53 pm 16:53 Cloudy 66 18.9 64 17.8 93 93 NW 8 13 29.95 1014 10 16 0.01 0.25
5:53 pm 17:53 Cloudy with Mist and Fog 67 19.4 63 17.2 87 87 N 7 11 29.96 1014 6 10 0.00 0.00
6:53 pm 18:53 Cloudy 67 19.4 63 17.2 87 87 N 3 6 29.96 1015 10 16 0.00 0.00
7:00 pm 19:00 Cloudy 66 19 64 18 94 94 W 5 7 29.97 1015 10 16 0.00 0.00
7:53 pm 19:53 Cloudy 65 18.3 62 16.7 90 90 NNW 7 11 29.97 1015 10 16 0.00 0.00
8:30 pm 20:30 Cloudy with Light Rain 64 18 63 17 94 94 N 8 13 29.97 1015 6 10 0.00 0.00
8:53 pm 20:53 Cloudy 63 17.2 62 16.7 97 97 NNW 7 11 29.99 1016 10 16 0.02 0.51
9:53 pm 21:53 Cloudy with Mist and Fog 63 17.2 61 16.1 93 93 N 5 7 29.99 1016 6 10 0.00 0.00
10:00 pm 22:00 Cloudy 63 17 61 16 94 94 N 6 9 30.00 1016 9 14 0.00 0.00
10:53 pm 22:53 Mostly Cloudy 62 16.7 61 16.1 96 96 N 5 7 29.99 1016 10 16 0.00 0.00
11:28 pm 23:28 Cloudy 63 17 61 16 94 94 N 5 7 30.00 1016 10 16 0.00 0.00
11:53 pm 23:53 Cloudy 62 16.7 62 16.7 100 100 N 3 6 29.99 1016 10 16 0.00 0.00

Powered by AerisWeather